Regional Weather Roundup
Issued by NWS Wilmington, NC

Home | Current Version | Previous Version | Text Only | Print | Product List | Glossary On
Versions: 1 2 3 4 5 6 7 8 9 10 11 12 13 14 15 16 17 18 19 20 21 22 23 24 25 26 27 28 29 30 31 32 33 34 35 36 37 38 39 40 41 42 43 44 45 46 47 48 49 50
000
ASUS42 KILM 240513
RWRILM
RWRILM
REGIONAL HOURLY WEATHER ROUNDUP
NATIONAL WEATHER SERVICE WILMINGTON NC
100 AM EDT WED AUG 24 2016

NOTE: "FAIR" INDICATES FEW OR NO CLOUDS BELOW 12,000 FEET WITH NO
SIGNIFICANT WEATHER AND/OR OBSTRUCTIONS TO VISIBILITY.

...............WFO WILMINGTON COUNTY WARNING AREA...............

......COASTAL NC AND SC COUNTIES......

CITY           SKY/WX    TMP DP  RH WIND       PRES   REMARKS
WILMINGTON     CLEAR     71  66  84 N5        30.26F
N MYRTLE BEACH CLEAR     73  67  81 NE5       30.24F
MYRTLE BEACH   MOCLDY    81  63  54 E8        30.26F

......INLAND NC AND SC COUNTIES.......

CITY           SKY/WX    TMP DP  RH WIND       PRES   REMARKS
LUMBERTON      PTCLDY    72  67  84 CALM      30.26F
ELIZABETHTOWN  CLEAR     72  66  82 CALM      30.27S
WHITEVILLE     PTCLDY    72  67  87 CALM      30.26S
FLORENCE       MOCLDY    73  67  81 CALM      30.26S
DARLINGTON     CLEAR     72  68  87 CALM      30.27S
KINGSTREE      FAIR      68  64  88 CALM      30.25S
HARTSVILLE     FAIR      72  64  78 CALM      30.26F
BENNETTSVILLE  FAIR      72  68  88 CALM      30.26S
CONWAY         NOT AVBL
GEORGETOWN     FAIR      70  68  94 CALM      30.25F
MARION         FAIR      70  68  94 CALM      30.26S

....................REST OF NORTH CAROLINA......................

.........EASTERN NC.........

CITY           SKY/WX    TMP DP  RH WIND       PRES   REMARKS
CAPE HATTERAS  CLEAR     73  63  70 NE5       30.26F
JACKSONVILLE   CLEAR     68  65  90 CALM      30.28S
MOREHEAD CITY  CLEAR     73  62  68 NE5       30.26F
KENANSVILLE    NOT AVBL
NEW BERN       CLEAR     71  60  68 E5        30.29F
ELIZABETH CITY CLEAR     70  61  73 E5        30.28F

.........CENTRAL NC.........

CITY           SKY/WX    TMP DP  RH WIND       PRES   REMARKS
RALEIGH DURHAM PTCLDY    73  63  70 SE7       30.30S
ROCKY MOUNT    CLEAR     66  64  93 CALM      30.30S
ROANOKE RAPIDS NOT AVBL
FAYETTEVILLE   PTCLDY    74  65  73 SE7       30.27S
HOFFMAN        CLEAR     70  66  88 SE6       30.27S

.........WESTERN NC.........

CITY           SKY/WX    TMP DP  RH WIND       PRES   REMARKS
CHARLOTTE      PTCLDY    76  61  59 SE9       30.28S
GREENSBORO     CLEAR     72  61  68 SE3       30.28F
HICKORY        NOT AVBL
BOONE          NOT AVBL
ASHEVILLE      NOT AVBL

.....................REST OF SOUTH CAROLINA.....................

.........EASTERN SC.........

CITY           SKY/WX    TMP DP  RH WIND       PRES   REMARKS
CHARLESTON     PTCLDY    75  68  78 NE5       30.23F
BEAUFORT MCAS  CLEAR     78  72  81 NE6       30.22F
HILTON HEAD    PTCLDY    82  72  69 VRB5      30.22S

.........CENTRAL SC.........

CITY           SKY/WX    TMP DP  RH WIND       PRES   REMARKS
COLUMBIA       CLOUDY    78  69  73 E6        30.24F
ORANGEBURG     CLEAR     74  69  85 CALM      30.25S
SUMTER SHAW    PTCLDY    74  68  80 SE1       30.24S

.........WESTERN SC.........

CITY           SKY/WX    TMP DP  RH WIND       PRES   REMARKS
GREENVILLE     NOT AVBL
ROCK HILL      PTCLDY    74  64  71 VRB3      30.28S
ANDERSON       PTCLDY    76  66  71 NE8       30.24F
CLEMSON        NOT AVBL
GREENWOOD      PTCLDY    77  66  68 CALM      30.26F


...................COASTAL AND OFFSHORE REPORTS..................

................LOCAL PIERS AND NC RESERVE................


STATION/POSITION TIME  SKY/WX   TEMP    WIND        PRES    VSBY
                                AIR SEA DIR/SP/G
                 (UTC)          (F)     (DEG/KT/KT) (MB)    (MI)
JOHNY MRCER PIER 0400            80 84   70/ 18/ 19 1023.8R
NC RESRV MASNBRO NOT AVBL
OCEAN CREST PIER NOT AVBL
SPRINGMAID  PIER 0400                    70/ 11/ 13 1024.2R


................COASTAL AND OFFSHORE BUOYS................


STATION/POSITION TIME  SKY/WX   TEMP    WIND        PRES    VSBY
                                AIR SEA DIR/SP/G
                 (UTC)          (F)     (DEG/KT/KT) (MB)    (MI)
DIMNDSHOAL 41025 0450            78 84   30/ 12/ 16 1024.0F
WVE H/P(F/S)=  3/ 6 SWL H/P/D(F/S/D)=  3/ 10/ 6

CAPE LOOKOUT     0500            78      50/ 13/ 14 1024.1F
ONSLOW BAY 41036 NOT AVBL
ONSLOW BAY 41064 0408            80 85   60/ 17/ 23 1024.1F
ONSLOW BAY 41159 0425               85                N/A
WVE H/P(F/S)=  4/ 6

5SE WRITBC 41038 0408            81 83   80/ 16/ 21 1025.2R
MASNBO INL 41110 0406               83                N/A
WVE H/P(F/S)=  4/ 5

WILM HARBR 41108 0426               85                N/A
WVE H/P(F/S)=  3/ 5

27SE WRITB 41037 0408            81 84   70/ 16/ 21 1024.2F
FRYING PAN 41013 0400            82 85   60/ 17/ 21 1023.4S
SUNST NRSH 41024 0408            82 85   90/ 14/ 19 1023.9R
CAPRS NRSH 41029 0408            83 85   80/ 12/ 16 1023.5R
EDISTO     41004 0450            83 85   70/ 12/ 14 1022.6F
WVE H/P(F/S)=  4/ 7 SWL H/P/D(F/S/D)=  2/100/ 7



..........OFFSHORE BUOYS BEYOND 100 NM OFFSHORE...........
.....IN A TRIANGLE---HAT TO BERMUDA TO BAHAMAS TO HAT.....


STATION/POSITION TIME  SKY/WX   TEMP    WIND        PRES    VSBY
                                AIR SEA DIR/SP/G
                 (UTC)          (F)     (DEG/KT/KT) (MB)    (MI)
150E HAT   41001 NOT AVBL
W BERMUDA  41048 0450            83 85   40/ 16/ 17 1019.2F
WVE H/P(F/S)=  4/11 SWL H/P/D(F/S/D)=  3/130/11

ATLANTIC S 41049 0450            83 85  140/ 12/ 14 1019.3R
WVE H/P(F/S)=  5/ 7 SWL H/P/D(F/S/D)=  5/100/ 7

E BAHAMAS  41046 0400            85 85   70/ 12/ 14 1016.6F
NE BAHAMAS 41047 0400            85 87   70/ 10/ 12 1017.5S
120E CANVRL41010 NOT AVBL

END



USA.gov is the U.S. government's official web portal to all federal, state and local government web resources and services.